Weather History for Chehalis, WA

Change the Weather History Date:

Friday, August 30, 2013

  Actual Average (KOLM) Record (KOLM)
Temperature  
Mean Temperature 68 °F 63 °F  
Max Temperature 78 °F 76 °F 90 °F (1987)
Min Temperature 57 °F 49 °F 36 °F (1977)
Degree Days  
Heating Degree Days 0 3  
Month to date heating degree days 66  
Since 1 June heating degree days 334  
Since 1 July heating degree days 146  
Cooling Degree Days 2 1  
Month to date cooling degree days 46  
Year to date cooling degree days 103  
Since 1 June cooling degree days 100  
Growing Degree Days 18 (Base 50)    
Moisture  
Dew Point 59 °F    
Average Humidity 77    
Maximum Humidity 100    
Minimum Humidity 47    
Precipitation  
Precipitation 0.00 in 0.05 in 0.82 in (1990)
Month to date precipitation 0.89  
Year to date precipitation 27.55  
Sea Level Pressure  
Sea Level Pressure 30.12 in    
Wind  
Wind Speed 2 mph (WNW)    
Max Wind Speed 6 mph    
Max Gust Speed -    
Visibility 9 miles    
Events Fog , Rain    
T = Trace of Precipitation, MM = Missing Value Source: NWS Daily Summary

Daily Weather History Graph

Daily Weather History Graph

Search for Another Location

Airport:

Trip Planner

Search our weather history database for the weather conditions in past years. The results will help you decide how hot, cold, wet, or windy it might be!

Date:

Astronomy

Aug. 30, 2013 Rise Set
Actual Time 6:29 AM PDT 7:54 PM PDT
Civil Twilight 5:58 AM PDT 8:25 PM PDT
Nautical Twilight 5:20 AM PDT 9:03 PM PDT
Astronomical Twilight 4:39 AM PDT 9:44 PM PDT
Moon 1:01 AM PDT (8/30) 4:24 PM PDT (8/30)
Length of Visible Light 14h 27m
Length of Day
13h 24m
Waning Crescent, 28% of the Moon is Illuminated
Aug 30
Waning Crescent
Sep 5
New
Sep 12
First Quarter
Sep 19
Full
Sep 26
Last Quarter

Hourly Weather History & Observations

Time (PDT) Temp. Dew Point Humidity Pressure Visibility Wind Dir Wind Speed Gust Speed Precip Events Conditions
12:15 AM 64.4 °F 62.6 °F 94% 30.08 in 10.0 mi South 3.5 mph - N/A   Overcast
12:35 AM 64.4 °F 62.6 °F 94% 30.07 in 10.0 mi WSW 3.5 mph - N/A   Overcast
12:55 AM 64.4 °F 62.6 °F 94% 30.08 in 10.0 mi WSW 3.5 mph - N/A   Mostly Cloudy
1:15 AM 62.6 °F 62.6 °F 100% 30.08 in 10.0 mi WSW 3.5 mph - N/A   Mostly Cloudy
1:35 AM 62.6 °F 62.6 °F 100% 30.08 in 10.0 mi Calm Calm - N/A   Overcast
1:55 AM 62.6 °F 62.6 °F 100% 30.08 in 10.0 mi Calm Calm - N/A   Mostly Cloudy
2:15 AM 62.6 °F 62.6 °F 100% 30.08 in 10.0 mi SSW 3.5 mph - N/A   Overcast
2:35 AM 62.6 °F 62.6 °F 100% 30.08 in 10.0 mi Calm Calm - N/A   Overcast
2:55 AM 62.6 °F 62.6 °F 100% 30.08 in 10.0 mi Calm Calm - N/A   Overcast
3:15 AM 62.6 °F 62.6 °F 100% 30.10 in 10.0 mi Calm Calm - N/A   Overcast
3:35 AM 62.6 °F 62.6 °F 100% 30.10 in 9.0 mi Calm Calm - N/A   Overcast
3:55 AM 62.6 °F 60.8 °F 94% 30.10 in 7.0 mi Calm Calm - N/A   Overcast
4:15 AM 62.6 °F 62.6 °F 100% 30.11 in 5.0 mi Calm Calm - N/A   Overcast
4:35 AM 62.6 °F 60.8 °F 94% 30.11 in 10.0 mi Calm Calm - N/A   Overcast
4:55 AM 60.8 °F 60.8 °F 100% 30.11 in 9.0 mi Calm Calm - N/A   Overcast
5:15 AM 60.8 °F 60.8 °F 100% 30.12 in 8.0 mi Calm Calm - N/A   Mostly Cloudy
5:35 AM 59.0 °F 59.0 °F 100% 30.12 in 2.5 mi Calm Calm - N/A   Scattered Clouds
5:55 AM 59.0 °F 59.0 °F 100% 30.12 in 5.0 mi Calm Calm - N/A   Mostly Cloudy
6:55 AM 59.0 °F 59.0 °F 100% 30.14 in 0.5 mi Calm Calm - N/A Fog Fog
7:15 AM 59.0 °F 59.0 °F 100% 30.15 in 10.0 mi Calm Calm - N/A   Overcast
7:35 AM 59.0 °F 59.0 °F 100% 30.15 in 10.0 mi WSW 3.5 mph - N/A   Overcast
7:55 AM 59.0 °F 59.0 °F 100% 30.16 in 0.5 mi Calm Calm - N/A Fog Fog
8:15 AM 59.0 °F 59.0 °F 100% 30.17 in 0.8 mi Calm Calm - N/A   Overcast
8:35 AM 60.8 °F 60.8 °F 100% 30.17 in 10.0 mi SSW 3.5 mph - N/A   Overcast
8:55 AM 62.6 °F 60.8 °F 94% 30.17 in 5.0 mi South 3.5 mph - N/A   Mostly Cloudy
9:15 AM 62.6 °F 60.8 °F 94% 30.17 in 5.0 mi SSE 3.5 mph - N/A   Mostly Cloudy
9:35 AM 64.4 °F 60.8 °F 88% 30.17 in 5.0 mi Calm Calm - N/A   Partly Cloudy
9:55 AM 66.2 °F 59.0 °F 78% 30.17 in 9.0 mi Calm Calm - N/A   Clear
10:15 AM 68.0 °F 59.0 °F 73% 30.17 in 5.0 mi Calm Calm - N/A   Haze
10:35 AM 71.6 °F 57.2 °F 60% 30.17 in 10.0 mi SW 3.5 mph - N/A   Clear
10:55 AM 71.6 °F 59.0 °F 64% 30.17 in 10.0 mi Calm Calm - N/A   Clear
11:15 AM 73.4 °F 57.2 °F 57% 30.17 in 10.0 mi SSE 5.8 mph - N/A   Scattered Clouds
11:35 AM 73.4 °F 57.2 °F 57% 30.17 in 10.0 mi Calm Calm - N/A   Mostly Cloudy
11:55 AM 75.2 °F 57.2 °F 53% 30.16 in 10.0 mi WSW 4.6 mph - N/A   Mostly Cloudy
12:15 PM 73.4 °F 55.4 °F 53% 30.16 in 10.0 mi West 3.5 mph - N/A   Mostly Cloudy
12:35 PM 75.2 °F 55.4 °F 50% 30.16 in 10.0 mi SSW 4.6 mph - N/A   Mostly Cloudy
12:55 PM 75.2 °F 55.4 °F 50% 30.16 in 10.0 mi NW 4.6 mph - N/A   Mostly Cloudy
1:15 PM 77.0 °F 55.4 °F 47% 30.16 in 7.0 mi Calm Calm - N/A Rain Light Rain
1:35 PM 75.2 °F 55.4 °F 50% 30.15 in 9.0 mi Calm Calm - N/A   Mostly Cloudy
1:55 PM 77.0 °F 55.4 °F 47% 30.15 in 9.0 mi NNW 3.5 mph - N/A   Scattered Clouds
2:15 PM 77.0 °F 55.4 °F 47% 30.15 in 10.0 mi Calm Calm - N/A   Mostly Cloudy
2:35 PM 77.0 °F 55.4 °F 47% 30.14 in 10.0 mi North 3.5 mph - N/A   Mostly Cloudy
2:55 PM 77.0 °F 55.4 °F 47% 30.14 in 10.0 mi NW 3.5 mph - N/A   Partly Cloudy
3:15 PM 78.8 °F 57.2 °F 47% 30.13 in 10.0 mi NNW 5.8 mph - N/A   Clear
3:35 PM 77.0 °F 55.4 °F 47% 30.13 in 10.0 mi West 3.5 mph - N/A   Partly Cloudy
3:55 PM 75.2 °F 57.2 °F 53% 30.13 in 10.0 mi Calm Calm - N/A   Partly Cloudy
4:15 PM 75.2 °F 57.2 °F 53% 30.13 in 10.0 mi NNW 3.5 mph - N/A   Scattered Clouds
4:35 PM 75.2 °F 57.2 °F 53% 30.12 in 10.0 mi NW 3.5 mph - N/A   Clear
4:55 PM 77.0 °F 57.2 °F 50% 30.12 in 10.0 mi NW 3.5 mph - N/A   Clear
5:15 PM 75.2 °F 55.4 °F 50% 30.11 in 10.0 mi NW 5.8 mph - N/A   Clear
5:35 PM 77.0 °F 57.2 °F 50% 30.10 in 10.0 mi North 4.6 mph - N/A   Clear
5:55 PM 75.2 °F 57.2 °F 53% 30.10 in 10.0 mi NNW 4.6 mph - N/A   Clear
6:15 PM 75.2 °F 57.2 °F 53% 30.10 in 10.0 mi WNW 3.5 mph - N/A   Clear
6:35 PM 75.2 °F 57.2 °F 53% 30.09 in 10.0 mi NW 5.8 mph - N/A   Clear
6:55 PM 73.4 °F 59.0 °F 61% 30.09 in 10.0 mi NNW 4.6 mph - N/A   Clear
7:15 PM 71.6 °F 59.0 °F 64% 30.09 in 10.0 mi NNW 3.5 mph - N/A   Clear
7:35 PM 69.8 °F 57.2 °F 64% 30.10 in 8.0 mi NNW 4.6 mph - N/A   Clear
8:15 PM 66.2 °F 57.2 °F 73% 30.10 in 10.0 mi NW 3.5 mph - N/A   Clear
8:35 PM 66.2 °F 57.2 °F 73% 30.10 in 7.0 mi Calm Calm - N/A   Clear
8:55 PM 64.4 °F 57.2 °F 77% 30.10 in 10.0 mi Calm Calm - N/A   Clear
9:15 PM 64.4 °F 57.2 °F 77% 30.10 in 7.0 mi Calm Calm - N/A   Clear
9:35 PM 64.4 °F 57.2 °F 77% 30.09 in 10.0 mi Calm Calm - N/A   Clear
9:55 PM 62.6 °F 57.2 °F 82% 30.10 in 10.0 mi Calm Calm - N/A   Clear
10:15 PM 59.0 °F 57.2 °F 94% 30.10 in 9.0 mi Calm Calm - N/A   Clear
10:35 PM 59.0 °F 57.2 °F 94% 30.10 in 10.0 mi Calm Calm - N/A   Clear
10:55 PM 59.0 °F 57.2 °F 94% 30.10 in 5.0 mi Calm Calm - N/A   Clear
11:15 PM 57.2 °F 57.2 °F 100% 30.10 in 10.0 mi Calm Calm - N/A   Clear
11:35 PM 57.2 °F 57.2 °F 100% 30.10 in 9.0 mi Calm Calm - N/A   Clear
11:55 PM 57.2 °F 57.2 °F 100% 30.10 in 10.0 mi Calm Calm - N/A   Clear